HEBOWX Weather Reports


time (UTC)temp
F
wind
direction
speed
knots
gust
knots
rain 1hr
in
rain 24hr
in
rain mn
in
humidity
%
barometer
mb
20260505122532 46 0 0.0 0.0 0.00 0.00 0.00 70 1010.3
20260505122028 46 0 0.0 3.5 0.00 0.00 0.00 70 1010.3
20260505121528 46 0 0.0 3.5 0.00 0.00 0.00 70 1010.3
20260505121028 46 229 0.0 3.5 0.00 0.00 0.00 69 1010.3
20260505120528 46 0 0.0 1.7 0.00 0.00 0.00 69 1010.4
20260505120029 46 0 0.0 0.0 0.00 0.00 0.00 69 1010.3
20260505115528 46 0 0.0 3.5 0.00 0.00 0.00 69 1010.3
20260505115028 46 260 0.0 3.5 0.00 0.00 0.00 69 1010.3
20260505114528 46 266 0.0 3.5 0.00 0.00 0.00 68 1010.3
20260505114029 46 246 1.7 3.5 0.00 0.00 0.00 67 1010.4
20260505113528 46 247 1.7 3.5 0.00 0.00 0.00 66 1010.4
20260505113029 46 267 0.0 3.5 0.00 0.00 0.00 65 1010.3
20260505112528 47 0 2.6 2.6 0.00 0.00 0.00 64 1010.3
20260505112033 47 0 0.0 2.6 0.00 0.00 0.00 63 1010.3
20260505111528 47 260 0.0 2.6 0.00 0.00 0.00 60 1010.3
20260505111028 47 252 1.7 2.6 0.00 0.00 0.00 59 1010.3
20260505110528 47 0 0.0 0.0 0.00 0.00 0.00 57 1010.3
20260505102028 51 0 0.0 0.0 0.00 0.00 0.00 46 1010.2
20260505101529 52 0 0.0 0.0 0.00 0.00 0.00 43 1010.1
20260505101028 52 0 0.0 0.0 0.00 0.00 0.00 42 1010.2
20260505100528 52 0 0.0 0.0 0.00 0.00 0.00 44 1010.2
20260505100029 52 0 0.0 0.0 0.00 0.00 0.00 41 1010.2
20260505095528 53 0 0.0 0.0 0.00 0.00 0.00 41 1010.2
20260505095028 53 0 0.0 0.0 0.00 0.00 0.00 39 1010.2
20260505094029 53 0 0.0 0.0 0.00 0.00 0.00 39 1010.3
20260505093529 53 0 0.0 0.0 0.00 0.00 0.00 40 1010.3
20260505093028 53 0 0.0 0.0 0.00 0.00 0.00 40 1010.3
20260505092528 53 0 0.0 0.0 0.00 0.00 0.00 40 1010.2
20260505092028 53 0 0.0 0.0 0.00 0.00 0.00 40 1010.2
20260505091528 53 0 0.0 0.0 0.00 0.00 0.00 41 1010.2
20260505091028 53 0 0.0 0.0 0.00 0.00 0.00 40 1010.2
20260505090528 53 0 0.0 0.0 0.00 0.00 0.00 40 1010.1
20260505090029 53 0 0.0 0.0 0.00 0.00 0.00 39 1010.2
20260505085529 53 0 0.0 0.0 0.00 0.00 0.00 40 1010.1
20260505085028 53 0 0.0 0.0 0.00 0.00 0.00 40 1010.2
20260505084530 53 0 0.0 0.0 0.00 0.00 0.00 40 1010.2
20260505084029 54 0 0.0 0.0 0.00 0.00 0.00 40 1010.2
20260505083529 54 0 0.0 0.0 0.00 0.00 0.00 39 1010.2
20260505083027 54 0 0.0 0.0 0.00 0.00 0.00 37 1010.1
20260505082528 54 0 0.0 0.0 0.00 0.00 0.00 36 1010.2
20260505082028 54 0 0.0 0.0 0.00 0.00 0.00 37 1010.1
20260505081528 54 0 0.0 0.0 0.00 0.00 0.00 36 1010.2
20260505081034 54 0 0.0 0.0 0.00 0.00 0.00 35 1010.2
20260505080528 54 0 0.0 0.0 0.00 0.00 0.00 36 1010.2
20260505080029 54 0 0.0 0.0 0.00 0.00 0.00 36 1010.2
20260505075528 54 0 0.0 0.0 0.00 0.00 0.00 37 1010.1
20260505075028 54 0 0.0 0.0 0.00 0.00 0.00 36 1010.2
20260505074528 54 0 0.0 0.0 0.00 0.00 0.00 37 1010.1
20260505074030 54 0 0.0 0.0 0.00 0.00 0.00 36 1010.1
20260505073528 54 0 0.0 0.0 0.00 0.00 0.00 36 1010.1
20260505073028 54 0 0.0 0.0 0.00 0.00 0.00 36 1010.1
20260505072528 54 0 0.0 0.0 0.00 0.00 0.00 35 1010.1
20260505072027 54 0 0.0 0.0 0.00 0.00 0.00 36 1010.1
20260505071528 54 0 0.0 0.0 0.00 0.00 0.00 36 1010.1
20260505071029 54 0 0.0 0.0 0.00 0.00 0.00 36 1010.1
20260505070527 54 0 0.0 0.0 0.00 0.00 0.00 36 1009.9
20260505070028 54 0 0.0 0.0 0.00 0.00 0.00 35 1009.9
20260505065528 54 0 0.0 0.0 0.00 0.00 0.00 36 1009.9
20260505065028 54 0 0.0 0.0 0.00 0.00 0.00 35 1009.9
20260505064527 54 0 0.0 0.0 0.00 0.00 0.00 37 1009.9
20260505064029 54 0 0.0 0.0 0.00 0.00 0.00 37 1009.9
20260505063527 54 0 0.0 0.0 0.00 0.00 0.00 38 1010.1
20260505063028 54 0 0.0 0.0 0.00 0.00 0.00 39 1010.1
20260505062527 54 0 0.0 0.0 0.00 0.00 0.00 40 1010.1
20260505062028 54 0 0.0 0.0 0.00 0.00 0.00 41 1010.2
20260505061527 54 0 0.0 0.0 0.00 0.00 0.00 42 1010.1
20260505061029 54 0 0.0 0.0 0.00 0.00 0.00 40 1010.1
20260505060528 54 0 0.0 0.0 0.00 0.00 0.00 41 1010.1
20260505060027 54 0 0.0 0.0 0.00 0.00 0.00 41 1010.1
20260505055527 54 0 0.0 0.0 0.00 0.00 0.00 40 1010.1
20260505055120 54 0 0.0 0.0 0.00 0.00 0.00 42 1010.1
20260505055029 54 0 0.0 0.0 0.00 0.00 0.00 42 1010.1
20260505054527 54 0 0.0 0.0 0.00 0.00 0.00 42 1010.1
20260505054030 53 0 0.0 0.0 0.00 0.00 0.00 43 1010.1
20260505053528 53 0 0.0 0.0 0.00 0.00 0.00 43 1010.1
20260505053028 53 0 0.0 0.0 0.00 0.00 0.00 43 1010.1
20260505052528 53 0 0.0 0.0 0.00 0.00 0.00 43 1010.2
20260505052029 53 0 0.0 1.7 0.00 0.00 0.00 45 1010.1
20260505051530 53 0 0.0 1.7 0.00 0.00 0.00 46 1010.2
20260505051028 53 287 0.0 1.7 0.00 0.00 0.00 46 1010.3
20260505050527 53 0 0.0 0.0 0.00 0.00 0.00 46 1010.3
20260505041527 53 259 0.9 2.6 0.00 0.00 0.00 48 1009.8
20260505041027 53 292 1.7 3.5 0.00 0.00 0.00 48 1009.9
20260505040527 53 298 1.7 3.5 0.00 0.00 0.00 48 1009.7
20260505040027 53 284 0.9 3.5 0.00 0.00 0.00 48 1009.6
20260505035527 53 303 0.9 1.7 0.00 0.00 0.00 48 1009.6
20260505035028 53 296 0.9 2.6 0.00 0.00 0.00 47 1009.5
20260505034527 53 298 0.9 2.6 0.00 0.00 0.00 47 1009.5
20260505034027 53 292 0.0 2.6 0.00 0.00 0.00 48 1009.5
20260505033528 53 287 0.9 2.6 0.00 0.00 0.00 48 1009.4
20260505033029 53 287 0.9 2.6 0.00 0.00 0.00 48 1009.4
20260505032527 54 282 0.9 1.7 0.00 0.00 0.00 48 1009.4
20260505032027 54 323 0.9 1.7 0.00 0.00 0.00 47 1009.3
20260505031527 54 308 0.9 1.7 0.00 0.00 0.00 47 1009.3
20260505031027 54 312 0.9 1.7 0.00 0.00 0.00 47 1009.3
20260505030527 54 298 0.9 5.2 0.00 0.00 0.00 46 1009.3
20260505030027 54 295 0.9 5.2 0.00 0.00 0.00 46 1009.3
20260505025527 54 292 1.7 5.2 0.00 0.00 0.00 47 1009.2
20260505025027 55 284 2.6 5.2 0.00 0.00 0.00 46 1009.2
20260505024527 55 267 0.9 5.2 0.00 0.00 0.00 45 1009.2
20260505024027 55 280 2.6 5.2 0.00 0.00 0.00 46 1009.2
20260505023527 55 288 0.9 5.2 0.00 0.00 0.00 45 1009.3
20260505023027 55 289 1.7 4.3 0.00 0.00 0.00 44 1009.2
20260505022527 55 319 1.7 4.3 0.00 0.00 0.00 44 1009.2
20260505022027 56 278 1.7 6.1 0.00 0.00 0.00 46 1009.2
20260505021529 56 273 1.7 6.1 0.00 0.00 0.00 46 1009.1
20260505021027 57 284 1.7 6.1 0.00 0.00 0.00 43 1009.3
20260505020527 57 280 1.7 6.1 0.00 0.00 0.00 43 1009.3
20260505020027 58 288 4.3 6.1 0.00 0.00 0.00 44 1009.3
20260505015527 58 275 3.5 6.1 0.00 0.00 0.00 42 1009.4
20260505015027 59 284 3.5 5.2 0.00 0.00 0.00 42 1009.4
20260505014527 59 266 1.7 4.3 0.00 0.00 0.00 42 1009.4
20260505014027 60 274 0.9 4.3 0.00 0.00 0.00 40 1009.4
20260505013527 60 263 0.9 4.3 0.00 0.00 0.00 41 1009.4
20260505013027 60 275 1.7 2.6 0.00 0.00 0.00 42 1009.5
20260505012529 60 0 0.0 2.6 0.00 0.00 0.00 45 1009.6
20260505012027 60 0 0.0 2.6 0.00 0.00 0.00 43 1009.5
20260505011529 60 270 0.0 2.6 0.00 0.00 0.00 42 1009.5
20260505011027 60 0 0.0 1.7 0.00 0.00 0.00 42 1009.6
20260505010527 60 294 0.0 1.7 0.00 0.00 0.00 44 1009.6
20260505010027 60 0 0.0 0.0 0.00 0.00 0.00 46 1009.6
20260505005527 60 0 0.0 0.0 0.00 0.00 0.00 48 1009.7
20260505005029 60 0 0.0 0.0 0.00 0.00 0.00 46 1009.6
20260505004527 60 0 0.0 0.0 0.00 0.00 0.00 48 1009.7
20260505004027 59 0 0.0 0.0 0.00 0.00 0.00 48 1009.7
20260505003527 59 0 0.0 0.0 0.00 0.00 0.00 47 1009.7
20260505003027 60 0 0.0 0.0 0.00 0.00 0.00 46 1009.7
20260505002527 60 0 0.0 0.0 0.00 0.00 0.00 47 1009.8
20260505002029 60 0 0.0 0.0 0.00 0.00 0.00 47 1009.8
20260505001527 60 0 0.0 0.0 0.00 0.00 0.00 47 1009.8
20260505001027 60 0 0.0 0.0 0.00 0.00 0.00 47 1009.8
20260505000527 60 0 0.0 0.0 0.00 0.00 0.00 48 1009.8
20260505000027 60 0 0.0 0.0 0.00 0.00 0.00 48 1009.9
20260504235527 60 0 0.0 0.0 0.00 0.00 0.00 48 1009.9
20260504235119 60 0 0.0 0.0 0.00 0.00 0.00 48 1009.9
20260504235028 60 0 0.0 0.0 0.00 0.00 0.00 48 1009.9
20260504234527 61 0 0.0 0.0 0.00 0.00 0.00 48 1009.9
20260504234027 61 0 0.0 0.0 0.00 0.00 0.00 48 1009.9
20260504233527 61 0 0.0 0.0 0.00 0.00 0.00 49 1010.1
20260504233027 61 0 0.0 0.0 0.00 0.00 0.00 48 1010.1
20260504232527 61 0 0.0 0.0 0.00 0.00 0.00 48 1010.1
20260504232027 62 0 0.0 0.0 0.00 0.00 0.00 47 1010.1
20260504231527 62 0 0.0 0.0 0.00 0.00 0.00 48 1010.2
20260504231027 62 0 0.0 0.0 0.00 0.00 0.00 47 1010.1
20260504230527 62 0 0.0 0.0 0.00 0.00 0.00 47 1010.1
20260504230028 62 0 0.0 0.0 0.00 0.00 0.00 47 1010.2
20260504225527 62 0 0.0 0.0 0.00 0.00 0.00 47 1010.2
20260504225029 63 0 0.0 0.0 0.00 0.00 0.00 47 1010.3
20260504224527 63 0 0.0 0.0 0.00 0.00 0.00 47 1010.2
20260504224029 63 0 0.0 0.0 0.00 0.00 0.00 47 1010.2
20260504223528 63 0 0.0 0.0 0.00 0.00 0.00 47 1010.2
20260504223027 63 0 0.0 0.0 0.00 0.00 0.00 46 1010.2
20260504222527 63 0 0.0 0.0 0.00 0.00 0.00 47 1010.3
20260504222027 62 0 0.0 0.0 0.00 0.00 0.00 46 1010.3
20260504221527 63 0 0.0 0.0 0.00 0.00 0.00 47 1010.3
20260504221027 63 0 0.0 0.0 0.00 0.00 0.00 46 1010.4
20260504220526 63 0 0.0 0.0 0.00 0.00 0.00 46 1010.4
20260504220027 63 0 0.0 0.0 0.00 0.00 0.00 46 1010.4
20260504215526 63 0 0.0 0.0 0.00 0.00 0.00 46 1010.5
20260504215027 63 0 0.0 0.0 0.00 0.00 0.00 45 1010.4
20260504214526 63 0 0.0 0.0 0.00 0.00 0.00 45 1010.5
20260504214027 63 0 0.0 0.0 0.00 0.00 0.00 45 1010.5
20260504213526 63 0 0.0 0.0 0.00 0.00 0.00 46 1010.5
20260504213027 63 0 0.0 0.0 0.00 0.00 0.00 46 1010.5
20260504212527 63 0 0.0 0.0 0.00 0.00 0.00 46 1010.5
20260504212027 63 0 0.0 0.0 0.00 0.00 0.00 45 1010.5
20260504211527 63 0 0.0 0.0 0.00 0.00 0.00 44 1010.6
20260504211027 63 0 0.0 0.0 0.00 0.00 0.00 45 1010.5
20260504210526 63 0 0.0 0.0 0.00 0.00 0.00 45 1010.5
20260504210027 63 0 0.0 0.0 0.00 0.00 0.00 45 1010.6
20260504205527 63 0 0.0 0.0 0.00 0.00 0.00 45 1010.6
20260504205027 63 0 0.0 0.0 0.00 0.00 0.00 45 1010.7
20260504204529 63 0 0.0 0.0 0.00 0.00 0.00 46 1010.7
20260504204027 63 0 0.0 0.0 0.00 0.00 0.00 45 1010.7
20260504203528 62 0 0.0 0.0 0.00 0.00 0.00 46 1010.7
20260504203027 63 0 0.0 0.0 0.00 0.00 0.00 45 1010.7
20260504202527 63 0 0.0 0.0 0.00 0.00 0.00 46 1010.7
20260504202027 63 0 0.0 0.0 0.00 0.00 0.00 46 1010.7
20260504201526 62 0 0.0 0.0 0.00 0.00 0.00 46 1010.7
20260504201026 62 0 0.0 0.0 0.00 0.00 0.00 47 1010.7
20260504200528 62 0 0.0 0.0 0.00 0.00 0.00 47 1010.7
20260504200027 62 0 0.0 0.0 0.00 0.00 0.00 47 1010.7
20260504195528 62 0 0.0 0.0 0.00 0.00 0.00 46 1010.8
20260504195027 62 0 0.0 0.0 0.00 0.00 0.00 47 1010.8
20260504194528 62 0 0.0 0.0 0.00 0.00 0.00 47 1010.7
20260504194027 62 0 0.0 0.0 0.00 0.00 0.00 46 1010.7
20260504193527 62 0 0.0 0.0 0.00 0.00 0.00 46 1010.6
20260504193027 62 0 0.0 0.0 0.00 0.00 0.00 46 1010.6
20260504192526 62 0 0.0 0.0 0.00 0.00 0.00 47 1010.6
20260504192027 61 0 0.0 0.0 0.00 0.00 0.00 47 1010.6
20260504191527 61 0 0.0 0.0 0.00 0.00 0.00 46 1010.6
20260504191027 61 0 0.0 0.0 0.00 0.00 0.00 47 1010.7
20260504190528 62 0 0.0 0.0 0.00 0.00 0.00 47 1010.6
20260504190119 61 0 0.0 0.0 0.00 0.00 0.00 46 1010.7
20260504190027 61 0 0.0 0.0 0.00 0.00 0.00 46 1010.7
20260504185527 61 0 0.0 0.0 0.00 0.00 0.00 46 1010.7
20260504185026 61 0 0.0 0.0 0.00 0.00 0.00 45 1010.6
20260504184526 61 0 0.0 0.0 0.00 0.00 0.00 45 1010.7
20260504184027 61 0 0.0 0.0 0.00 0.00 0.00 44 1010.7
20260504183527 61 0 0.0 0.0 0.00 0.00 0.00 44 1010.6
20260504183027 61 0 0.0 0.0 0.00 0.00 0.00 43 1010.5
20260504182526 61 0 0.0 0.0 0.00 0.00 0.00 44 1010.5
20260504182026 62 0 0.0 0.0 0.00 0.00 0.00 45 1010.5
20260504181529 62 0 0.0 0.0 0.00 0.00 0.00 43 1010.5
20260504181027 62 0 0.0 0.0 0.00 0.00 0.00 42 1010.4
20260504180527 62 0 0.0 0.0 0.00 0.00 0.00 41 1010.3
20260504180026 62 0 0.0 0.0 0.00 0.00 0.00 35 1010.3
20260504175528 62 0 0.0 0.0 0.00 0.00 0.00 38 1010.3
20260504175026 62 0 0.0 0.0 0.00 0.00 0.00 35 1010.2
20260504174527 62 0 0.0 0.0 0.00 0.00 0.00 35 1010.2
20260504174026 62 0 0.0 0.0 0.00 0.00 0.00 38 1010.3
20260504173526 62 0 0.0 0.0 0.00 0.00 0.00 37 1010.3
20260504173026 62 0 0.0 0.0 0.00 0.00 0.00 36 1010.3
20260504172526 62 2 0.0 0.0 0.00 0.00 0.00 36 1010.3
20260504172028 62 0 0.0 0.0 0.00 0.00 0.00 31 1010.3
20260504171526 62 0 0.0 0.0 0.00 0.00 0.00 31 1010.2
20260504171026 62 0 0.0 0.0 0.00 0.00 0.00 31 1010.2
20260504170526 62 0 0.0 0.0 0.00 0.00 0.00 32 1010.1
20260504151026 60 320 0.0 4.3 0.00 0.00 0.00 39 1009.8
20260504150526 60 294 0.0 4.3 0.00 0.00 0.00 41 1009.7
20260504141026 59 351 0.9 1.7 0.00 0.00 0.00 44 1009.3
20260504140526 59 334 0.0 1.7 0.00 0.00 0.00 44 1009.3
20260504130526 59 0 0.0 0.0 0.00 0.00 0.00 40 1008.7